Location: Aulnoy
(48.8410°N, 3.0967°E)
Time: 23:09:06
(UTC+00:00)

Cosmos 2237 Rocket - Pass Details

Date: 09 February 2023
Orbit: 835 x 849 km, 71.0° (Epoch: 01 April)

Event Time Altitude Azimuth Distance (km) Brightness Sun altitude
Rises 18:25:11 0° 173° (S) 3,395 5.3 -14.7°
Reaches altitude 10° 18:27:54 10° 162° (SSE) 2,466 4.5 -15.2°
Maximum altitude 18:32:41 29° 104° (ESE) 1,510 3.0 -16.0°
Enters shadow 18:34:19 25° 76° (ENE) 1,653 3.1 -16.2°
